Orbital elements:
    C/2008 R3 (LINEAR)
Epoch 2008 Nov. 30.0 TT = JDT 2454800.5
T 2008 Nov. 22.48273 TT                                 MPC
q   1.9088599            (2000.0)            P               Q
n   0.01259485     Peri.   84.15100     +0.72569046     +0.06448373
a  18.2953514      Node   270.56180     -0.35804292     +0.88556112
e   0.8956642      Incl.   43.23763     +0.58751904     +0.46002537
P  78.25
Residuals in seconds of arc
080907 704  0.0   1.6-    080914 213  0.4-  0.7-    080929 J38  0.4-  0.1+
080907 704  0.2-  0.8+    080914 213  0.0   0.4-    080929 J38  0.6-  0.0
080907 704  0.3+  0.2-    080914 J40  0.1+  0.2+    080929 J38  1.2-  0.6-
080907 704  0.4+  1.0+    080914 B37  0.1-  0.7+    080930 H47  0.2-  0.7+
080907 704  0.1-  1.0+    080914 J40  0.1-  0.1+    080930 H47  0.3-  0.5+
080907 458  0.1-  0.7-    080914 J40  0.4-  0.2+    080930 H47  0.5-  0.2-
080907 595  0.1-  0.2-    080914 J38  0.1+  0.2+    080930 J53  0.4-  0.1-
080907 595  0.2-  0.2-    080914 J38  0.0   0.4+    080930 J53  0.1-  0.4-
080907 458  0.1+  0.7-    080914 J38  0.2-  1.3+    080930 J53  0.3+  0.1-
080907 595  0.1-  0.2-    080915 673  0.3-  0.6+    081001 J79  0.1+  0.4+
080907 213  0.5-  0.4+    080915 673  0.3-  0.5+    081001 J79  0.7-  0.2-
080907 213  0.3-  0.0     080915 673  0.3-  0.4+    081001 J79  0.8+  0.5+
080907 213  0.5-  0.1+    080915 673  0.2-  0.4+    081001 A71  0.1+  0.1-
080908 H55  0.2+  0.3+    080915 J47  0.4-  0.1+    081001 A71  0.3+  0.1+
080908 H55  0.0   0.2+    080915 J47  0.2-  0.3+    081001 A71  0.7+  0.6-
080908 H55  0.2-  0.2+    080915 J47  0.2+  0.8+    081002 367  0.1-  0.3+
080908 H59  0.3-  0.2+    080915 J47  0.1+  0.5+    081002 367  0.3+  0.3+
080908 H59  0.6-  0.1+    080915 J47  0.6+  0.8+    081002 367  0.1-  0.1+
080908 H59  0.4-  0.1+    080916 204  0.1-  0.4-    081002 B37 (0.3-  2.2+)
080908 H59  0.4-  0.2+    080916 204  0.0   0.3-    081002 B37  0.2-  0.4+
080908 H36  0.4-  0.3-    080917 850  0.2-  0.9-    081002 B37  0.3-  0.3+
080908 711  1.3+  0.3+    080917 850  0.3+  0.4-    081002 B37  0.7-  0.5+
080908 711  1.0+  0.4+    080917 850  0.3+  0.2+    081002 B37  0.3-  0.4+
080908 711  0.5+  0.2+    080917 213  0.1-  0.4-    081002 B37  1.3+  0.5+
080908 H36  0.2-  0.5-    080917 213  0.1-  0.5-    081002 B37  0.1+  0.3+
080908 673  0.4-  0.3+    080917 213  0.1-  0.3-    081002 B37 (0.3+  2.2+)
080908 673  0.5-  0.3+    080918 H47  0.3+  0.3+    081003 704 (0.2-  2.1-)
080908 673  0.4-  0.5+    080918 H47  0.2-  0.3+    081003 704  0.2+  0.4-
080908 673  0.2-  0.4+    080918 H47  0.4+  0.1+    081003 704  0.0   0.8-
080908 E16  0.2+  0.0     080922 H47  0.4-  0.6+    081003 704  1.9+  0.6-
080908 E16  0.0   0.2+    080922 H47  0.1-  0.7+    081003 704 (2.6+  0.4-)
080908 E16  0.1-  0.1+    080922 H47  0.5+  0.7+    081004 H47  0.2-  0.1+
080908 E16  0.5-  0.1-    080922 D88  0.1-  0.0     081004 H47  0.4-  0.0
080908 900  0.3+  0.2-    080922 D88  0.2-  0.3+    081004 D88  0.0   0.4-
080908 900  0.2+  0.7-    080922 D88  0.8-  0.6+    081004 D88  0.2+  0.5+
080908 A99  0.4-  0.7+    080923 J47  0.0   0.3-    081004 D88  0.3+  0.4+
080908 473  1.3+  1.3-    080923 J47  0.1+  0.3-    081004 204  0.1+  0.1+
080908 A99  0.4-  0.7+    080923 J47  0.1+  0.3-    081004 204  0.1-  0.5+
080908 A99  0.2-  0.4+    080923 J47  0.1+  0.3-    081005 130  0.4+  0.4-
080908 B73 (5.8+  7.8-)   080923 J38  0.9+  0.6+    081005 130  0.1+  0.5-
080908 A99  0.3-  0.3+    080923 J38  0.6+  0.6+    081005 130  0.3+  0.2-
080908 B73  0.2+  0.3+    080923 J38  0.3-  0.4-    081005 130  0.0   0.1+
080908 A99  0.3-  0.4+    080924 H47  0.6-  0.2+    081007 629  0.1-  0.1-
080908 473  0.1-  0.6-    080924 H47  0.0   0.1+    081007 629  0.4-  0.3-
080908 473  0.4+  0.5-    080924 H47  0.3-  0.4+    081008 372  0.6-  0.4+
080908 473  0.3+  0.9-    080926 J53  0.0   0.4-    081008 372  0.3-  0.1+
080908 585  0.1-  0.3+    080926 J53  0.1+  0.6-    081008 372  0.2-  0.3+
080908 585  0.0   0.1+    080926 J53  0.1-  0.5-    081009 900  0.2+  0.4-
080908 585  0.3+  0.6-    080927 215  0.2-  0.3-    081009 900  0.4+  1.0-
080908 585  0.4+  0.3-    080927 215  0.0   0.4-    081009 585  1.1+  0.0
080908 585  0.3+  0.5-    080927 213  0.0   0.2-    081010 J39  0.9+  1.5-
080909 900  0.2-  0.0     080927 215  0.0   0.4-    081010 J39  1.2+  0.3-
080909 900  0.4-  0.1+    080927 213  0.4-  0.5-    081010 J39  0.7+  0.3-
080909 349  0.1-  0.6-    080927 213  0.0   0.1-    081010 J39  1.4+  0.6-
080909 349  0.2+  1.0-    080927 J47  0.3-  0.0     081011 J47  0.7-  0.1+
080909 B58  0.0   0.7-    080927 J47  0.5-  0.0     081011 J47  0.6-  0.3+
080909 B58  0.3+  0.1-    080927 J47  0.4-  0.2-    081011 J47  0.9-  0.3+
080909 B58  0.0   0.4-    080927 J47  0.6-  0.2-    081011 J47  0.9-  0.3+
080909 B58  0.2-  0.4-    080927 J38  0.3+  0.2-    081013 900  0.7-  0.1-
080909 J38  0.3+  0.2-    080927 J38  0.3+  0.3-    081013 900  0.0   0.3+
080909 J38  0.1+  0.2+    080927 J38  0.5+  0.2-    081013 118  0.8-  0.4-
080910 900  1.1-  0.0     080928 H47  0.5-  0.0     081013 118  0.3-  0.0
080910 900  0.5-  0.6-    080928 H47  0.3-  0.1+    081014 213  0.7-  0.0
080911 J38  0.5+  0.2-    080928 A77  0.6+  0.7-    081014 213  0.1+  0.3-
080911 J38  0.7+  0.8+    080928 A77  0.2+  0.7-    081014 J47  0.3+  0.2-
080911 J38  0.9+  1.0+    080928 046  0.2-  0.5+    081014 J47  0.6+  0.1-
080912 J47  0.2+  0.2-    080928 046  0.6-  0.3+    081014 J47  0.7+  0.4-
080912 J47  0.1-  0.1+    080928 A77  0.5+  0.6-    081015 B42  0.6+  0.3+
080912 J47  0.3+  0.3-    080928 046  0.5-  0.2+    081015 B42  0.0   0.7+
080912 J47  0.4-  0.1-    080928 046  0.1-  0.1+    081015 B42  0.5+  0.3+
080913 J47  0.3+  0.0     080928 046  0.4-  0.2+    081015 J38  0.3-  0.7+
080913 J47  0.6+  0.1-    080928 046  0.1+  0.1+    081015 J38  0.0   0.5+
080913 J47  0.6+  0.2-    080928 B37  0.3+  0.4+    081015 J38  0.1-  0.0
080913 J47  0.9+  0.3-    080928 B37  0.3+  0.2-    081018 900  0.4-  0.3-
080913 J47  1.3+  0.7-    080928 B37  0.1-  0.6+    081018 900  0.8-  0.1+
080914 900  1.1-  0.3-    080928 B37  0.3+  0.1-    081018 J38 (6.9-  0.3-)
080914 900  0.1+  0.1-    080928 B37  0.9+  0.8-    081019 056  0.6+  0.6+
080914 B37  0.2+  0.6+    080929 629  0.2-  0.2-    081019 056 (1.7-  3.0+)
080914 B37  0.1+  0.5+    080929 629  0.1-  0.2+    081019 056 (1.8+  3.0-)
080914 B37  0.3+  0.2+    080929 104  0.3-  0.0     081019 J38  0.0   0.1+
080914 B37  0.0   0.3-    080929 104  0.2-  0.0     081019 J38  0.3-  0.3+
080914 213  0.5-  0.3-    080929 104  0.0   0.0     081019 J38  0.3-  0.2+

Brian G. Marsden             (C) Copyright 2008 MPC           M.P.E.C. 2008-U21

Read MPEC 2008-U20 Read MPEC 2008-U22


Our Web policy. Index to the CBAT/MPC/ICQ pages.

